DIRECTV 12

Last updated on Mon Sep 07 2026 00:02:57 GMT+0000 (Coordinated Universal Time)

1 36131U 09075A 26249.42364796 -.00000119 00000+0 00000+0 0 9999 2 36131 0.0374 347.4200 0000255 245.2547 162.6344 1.00271229 47361
UTC large
Height (km)
Speed (km/s)
/
Latitude / Longitude
Inclination (degrees)
Orbital Period (minutes)
Azimuth
Elevation
Range (km)
Doppler Factor

Next 0 passes for location: London (51.5072 / 0.1276)

No passes found over London.
DIRECTV 12